This demonstration page uses our WeatherBlox Daily Observations layout. Learn more.

Left ArrowRight Arrow

Hourly Observations for July 15, 2021

Temp ( °F °C ) Dew Point ( °F °C ) Humidity (%) Winds ( mph kmh ) Pressure ( in mb ) Visibility ( mi km ) Precip ( " mm )
12:53 am 00:53 Clear 76 24.4 47 8.3 36 36 SSE 13 20 29.77 1008 10 16 0.00 0.00
1:53 am 01:53 Clear 71 21.7 48 8.9 44 44 NNW 7 11 29.76 1008 10 16 0.00 0.00
2:53 am 02:53 Clear 73 22.8 47 8.3 40 40 W 3 6 29.75 1008 10 16 0.00 0.00
3:53 am 03:53 Clear 59 15 47 8.3 64 64 Calm 29.76 1008 10 16 0.00 0.00
4:53 am 04:53 Clear 59 15 48 8.9 67 67 Calm 29.75 1008 10 16 0.00 0.00
5:53 am 05:53 Sunny 56 13.3 46 7.8 70 70 Calm 29.77 1008 10 16 0.00 0.00
6:53 am 06:53 Sunny 59 15 49 9.4 69 69 ESE 3 6 29.77 1008 10 16 0.00 0.00
7:53 am 07:53 Sunny 69 20.6 50 10 51 51 ESE 3 6 29.75 1008 10 16 0.00 0.00
8:53 am 08:53 Sunny 75 23.9 49 9.4 40 40 Calm 29.76 1008 10 16 0.00 0.00
9:53 am 09:53 Sunny 85 29.4 45 7.2 25 25 WSW 16 26 29.75 1007 10 16 0.00 0.00
10:53 am 10:53 Sunny 88 31.1 44 6.7 22 22 SW 18 30 29.73 1007 10 16 0.00 0.00
11:53 am 11:53 Sunny 91 32.8 44 6.7 20 20 WSW 13 20 29.71 1006 10 16 0.00 0.00
12:53 pm 12:53 Sunny 95 35 41 5 15 15 W 10 17 29.77 1008 8 13 0.00 0.00
1:53 pm 13:53 Sunny 98 36.7 33 0.6 10 10 WSW 16 26 29.67 1005 7 11 0.00 0.00
2:53 pm 14:53 Sunny 99 37.2 27 -2.8 8 8 W 20 31 29.74 1007 10 16 0.00 0.00
3:53 pm 15:53 Sunny 99 37.2 29 -1.7 8 8 W 21 33 29.66 1004 10 16 0.00 0.00
4:53 pm 16:53 Sunny 99 37.2 26 -3.3 7 7 WNW 20 31 29.65 1004 10 16 0.00 0.00
5:53 pm 17:53 Sunny 99 37.2 27 -2.8 8 8 W 12 19 29.64 1004 10 16 0.00 0.00
6:53 pm 18:53 Sunny 97 36.1 28 -2.2 9 9 NW 10 17 29.63 1004 10 16 0.00 0.00
7:53 pm 19:53 Sunny 93 33.9 31 -0.6 11 11 NW 6 9 29.62 1003 10 16 0.00 0.00
8:53 pm 20:53 Sunny 88 31.1 27 -2.8 11 11 NNW 5 7 29.63 1003 10 16 0.00 0.00
9:53 pm 21:53 Clear 71 21.7 35 1.7 27 27 S 6 9 29.66 1004 10 16 0.00 0.00
10:53 pm 22:53 Clear 67 19.4 35 1.7 31 31 S 3 6 29.67 1005 10 16 0.00 0.00
11:53 pm 23:53 Clear 64 17.8 35 1.7 34 34 Calm 29.69 1005 10 16 0.00 0.00

Powered by AerisWeather